Back to catalog

DELTA 1 R/B

AliveLEO
NORAD 7735·ROCKET BODY·🇺🇸 United States

Launched Apr 9, 1975 from Vandenberg Space Force Base

Loading…

Next Passes (next 24 hours)

TLE

FreshSource: Space-Track

Epoch: Sep 14, 2026, 06:34 UTC

1 07735U 75027B   26257.27377892 -.00000063  00000-0  48032-4 0  9991
2 07735 114.9725 180.1430 0051329 237.2654 122.3473 14.25620773671170

Track DELTA 1 R/B in real time with AllMySat

Download on the App Store